Cloud_Cover
100 32 71 100 100 100 100 100 89 14 14 47 99 58 56 51 45 38 38 72 71 87 100 99 100 99 100 87 74 81 82 100 99 100 100 100 100 100 100 100 100 100 100
100 28 19 86 26 52 83 66 100 98 5 17 92 40 29 29 52 29 43 58 64 98 100 94 100 67 100 97 85 100 80 78 100 100 100 100 100 100 100 100 100 100 100
26 45 4 2 5 5 5 30 86 100 15 14 100 90 52 35 72 54 38 46 54 69 70 93 100 69 87 100 100 100 100 100 94 100 100 100 100 100 100 100 100 100 100
100 13 7 98 46 5 5 7 6 66 60 17 80 79 90 63 78 82 28 11 18 42 67 100 100 100 100 100 100 100 100 100 100 100 100 100 100 100 100 100 100 100 100
48 5 5 79 83 10 48 19 15 5 10 53 100 64 49 99 6 96 94 97 28 67 70 64 63 45 59 44 37 89 92 98 100 100 100 100 100 100 100 100 100 100 100
10 79 4 40 37 62 34 34 33 20 10 1 5 10 21 27 39 17 27 100 100 63 7 23 94 100 14 6 5 19 21 45 64 91 100 100 100 100 100 100 100 100 82
37 69 59 99 76 25 87 52 89 70 81 100 79 17 53 90 31 30 33 32 100 100 100 100 44 44 100 100 100 99 100 88 10 84 94 92 87 93 91 92 93 100 100
97 62 82 100 90 83 98 92 100 64 14 100 100 100 84 96 82 85 44 72 92 69 83 100 100 100 100 100 100 100 100 100 99 82 52 12 28 75 65 61 71 60 76
92 96 100 100 100 100 98 79 72 97 100 100 76 69 93 77 100 59 79 100 100 100 100 100 100 100 100 100 100 100 100 100 95 100 88 94 27 5 6 22 58 99 100
100 100 100 100 100 100 100 100 100 95 86 73 68 100 75 92 100 100 100 100 100 100 100 100 100 100 100 100 100 100 100 100 69 81 60 81 57 18 5 2 0 0 2
83 94 100 100 100 100 100 100 100 100 54 58 99 95 98 81 100 100 100 100 100 100 100 100 100 100 100 100 100 100 100 98 88 67 19 8 9 5 4 2 0 0 1
100 100 100 100 100 100 100 100 100 100 98 95 98 98 42 77 52 97 93 97 100 100 100 100 100 100 100 92 92 76 30 5 5 16 9 1 0 0 0 0 0 0 0
100 100 100 100 100 100 100 100 100 100 100 100 94 100 76 93 95 84 62 66 100 100 100 89 100 97 30 29 8 5 0 0 0 0 0 0 0 0 0 0 0 0 0
100 100 100 100 100 100 100 100 100 100 89 87 100 100 98 98 95 77 78 98 76 99 92 95 54 67 25 3 0 0 0 0 0 0 0 0 0 0 0 0 0 0 0
100 100 100 100 100 100 100 100 100 100 100 100 100 97 100 100 91 99 100 89 63 99 100 99 58 50 5 5 5 5 3 3 0 0 0 0 0 0 0 0 0 0 0
100 100 100 100 100 100 100 100 100 100 99 100 100 100 100 98 41 9 54 100 96 56 18 5 4 2 1 0 0 0 0 0 3 5 0 0 0 0 0 0 0 0 0
100 100 100 100 100 100 100 100 100 99 100 100 100 100 97 99 97 78 25 3 5 6 45 5 5 4 0 0 5 5 2 0 0 0 0 0 0 0 0 0 0 5 4
100 100 100 100 97 95 100 59 49 42 30 22 44 82 76 30 14 5 5 5 5 10 64 67 7 5 5 4 3 2 0 0 1 1 2 4 3 3 0 0 0 5 5
79 95 100 98 52 41 78 32 42 44 22 5 5 14 6 8 58 62 5 0 0 4 5 5 5 2 0 0 0 0 5 5 5 4 4 4 0 0 0 5 5 1 0
42 7 17 36 100 92 36 78 61 9 30 15 27 37 5 12 5 4 2 5 5 20 13 2 1 0 0 5 5 14 25 5 5 1 0 3 5 5 4 4 5 5 5
7 30 65 72 46 27 100 55 65 66 13 5 6 5 11 5 5 5 5 5 3 1 4 5 5 4 16 66 66 9 19 13 5 5 6 5 5 5 5 5 5 5 6
93 98 86 100 100 96 80 66 67 34 32 77 80 69 6 5 5 5 5 5 10 31 36 19 66 92 52 5 5 5 5 91 7 23 33 88 92 17 7 5 5 23 23
99 91 91 93 83 86 61 70 93 81 69 73 41 17 98 71 43 55 55 12 16 19 15 86 95 79 34 68 6 5 26 54 4 1 5 38 100 71 47 48 12 52 18
100 94 100 99 98 98 92 79 59 31 42 26 69 97 73 43 45 71 100 100 96 74 77 37 10 5 5 0 0 0 1 0 0 2 4 4 4 4 1 0 0 4 4
96 100 100 98 93 97 100 100 96 74 66 87 99 94 80 70 48 58 100 92 82 65 81 5 1 0 0 0 0 0 20 5 1 44 0 0 0 0 0 0 0 0 0
84 100 98 100 100 100 100 100 100 100 100 85 100 95 97 99 96 100 91 62 25 24 5 5 4 0 2 2 1 2 4 5 2 5 0 0 0 0 0 0 0 0 0